Location: Little Italy
(37.8008°N, 122.4108°W)
Time: 07:57:57
(UTC+00:00)

Meteor 2-5 Rocket - Pass Details

Date: 29 October 2020
Orbit: 833 x 911 km, 81.2° (Epoch: 02 December)

Event Time Altitude Azimuth Distance (km) Brightness Sun altitude
Rises 12:43:40 0° 197° (SSW) 3,412 6.7 -22.0°
Reaches altitude 10° 12:46:05 10° 201° (SSW) 2,491 5.9 -21.6°
Maximum altitude 12:51:41 61° 281° (W) 992 3.7 -20.4°
Drops below altitude 10° 12:57:26 10° 2° (N) 2,560 6.2 -19.3°
Sets 12:59:58 0° 6° (N) 3,514 7.0 -18.8°
